Terug naar catalogus

STARLINK-36789

ActiefCommunicatieSSO
NORAD 68118·PAYLOAD·🇺🇸 United States

Gelanceerd Mar 8, 2026 vanaf Vandenberg Space Force Base

Loading…

Volgende Passages (komende 24 uur)

TLE

VersSource: CelesTrak SupGP

Epoch: Sep 14, 2026, 21:36 UTC

1 68118C 26044T   26257.90048611 -.00033792  00000+0 -10488-2 0  2576
2 68118  97.2851 216.9602 0001708  88.1563 195.7911 15.33461280    18

Volg STARLINK-36789 in realtime met AllMySat

Download on the App Store